This demonstration page uses our WeatherBlox Daily Observations layout. Learn more.

38.88101, -77.10428

Hourly Observations for August 16, 2018

Temp ( °F °C ) Dew Point ( °F °C ) Humidity (%) Winds ( mph kmh ) Pressure ( in mb ) Visibility ( mi km ) Precip ( " mm )
12:52 am 00:52 Mostly Cloudy 78 25.6 69 20.6 74 74 SSW 5 7 30.05 1018 10 16.0934 0 0
1:52 am 01:52 Mostly Cloudy 76 24.4 70 21.1 82 82 SSW 3 6 30.06 1018 10 16.0934 0 0
2:52 am 02:52 Mostly Clear 75 23.9 69 20.6 82 82 Calm 30.06 1018 10 16.0934 0 0
3:52 am 03:52 Mostly Clear 73 22.7 69 20.6 88 88 Calm 30.05 1018 10 16.0934 0 0
4:52 am 04:52 Mostly Clear 73 22.7 69 20.6 88 88 Calm 30.06 1018 10 16.0934 0 0
5:52 am 05:52 Mostly Cloudy 73 22.7 69 20.6 88 88 Calm 30.07 1018 10 16.0934 0 0
6:52 am 06:52 Mostly Cloudy 75 23.9 69 20.6 82 82 Calm 30.08 1019 10 16.0934 0 0
7:52 am 07:52 Cloudy 78 25.6 68 20 71 71 Calm 30.09 1019 10 16.0934 0 0
8:52 am 08:52 Cloudy 80 26.6 69 20.5 69 69 S 5 7 30.1 1019 10 16.0934 0 0
9:52 am 09:52 Cloudy 82 27.7 69 20.5 65 65 Calm 30.11 1020 10 16.0934 0 0
10:14 am 10:14 Cloudy 83 28.3 73 22.8 72 72 SSE 6 9 30.12 1020 10 16.0934 0 0
10:52 am 10:52 Cloudy 84 28.9 73 22.8 70 70 S 6 9 30.12 1020 10 16.0934 0 0
11:52 am 11:52 Cloudy 86 30 69 20.6 57 57 S 8 13 30.12 1020 10 16.0934 0 0
12:52 pm 12:52 Cloudy 88 31.1 72 22.2 59 59 S 8 13 30.09 1019 10 16.0934 0 0
1:52 pm 13:52 Mostly Cloudy 89 31.7 69 20.6 52 52 S 12 19 30.09 1019 10 16.0934 0 0
2:52 pm 14:52 Mostly Cloudy 90 32.2 70 21.1 52 52 S 13 20 30.09 1019 10 16.0934 0 0
3:52 pm 15:52 Cloudy 90 32.2 70 21.1 52 52 S 13 20 30.06 1018 10 16.0934 0 0
4:52 pm 16:52 Cloudy 89 31.7 73 22.8 59 59 S 13 20 30.06 1018 10 16.0934 0 0
5:52 pm 17:52 Cloudy 88 31.1 72 22.2 59 59 S 12 19 30.06 1018 10 16.0934 0 0
6:52 pm 18:52 Cloudy 88 31.1 71 21.7 57 57 S 8 13 30.06 1018 10 16.0934 0 0
7:52 pm 19:52 Mostly Cloudy 84 28.9 74 23.3 72 72 S 8 13 30.09 1019 10 16.0934 0 0
8:52 pm 20:52 Mostly Cloudy 83 28.3 75 23.9 77 77 S 6 9 30.09 1019 10 16.0934 0 0
9:52 pm 21:52 Mostly Cloudy 82 27.8 74 23.3 77 77 SSW 8 13 30.12 1020 10 16.0934 0 0
10:52 pm 22:52 Mostly Cloudy 81 27.2 74 23.3 79 79 S 7 11 30.1 1019 10 16.0934 0 0
11:52 pm 23:52 Mostly Clear 81 27.2 74 23.3 79 79 S 7 11 30.1 1019 10 16.0934 0 0

Powered by AerisWeather